TimePDT,TemperatureF,Dew PointF,Humidity,Sea Level PressureIn,VisibilityMPH,Wind Direction,Wind SpeedMPH,Gust SpeedMPH,PrecipitationIn,Events,Conditions,WindDirDegrees,DateUTC
12:53 AM,51.1,36.0,56,30.20,10.0,ESE,5.8,-,N/A,,Overcast,110,2013-04-10 07:53:00
1:53 AM,52.0,35.1,53,30.19,10.0,South,8.1,-,N/A,,Overcast,180,2013-04-10 08:53:00
2:53 AM,48.0,35.1,61,30.18,10.0,SSW,5.8,-,N/A,,Clear,200,2013-04-10 09:53:00
3:53 AM,50.0,36.0,59,30.17,10.0,SE,5.8,-,N/A,,Mostly Cloudy,140,2013-04-10 10:53:00
4:53 AM,48.9,37.0,64,30.14,10.0,SSE,4.6,-,N/A,,Scattered Clouds,160,2013-04-10 11:53:00
5:53 AM,52.0,36.0,54,30.14,10.0,SSW,9.2,-,N/A,,Overcast,200,2013-04-10 12:53:00
6:53 AM,53.1,37.9,57,30.12,10.0,SSW,6.9,-,N/A,,Overcast,200,2013-04-10 13:53:00
7:53 AM,53.1,39.0,59,30.10,10.0,SSW,6.9,-,N/A,,Overcast,210,2013-04-10 14:53:00
8:53 AM,55.9,41.0,57,30.07,10.0,SSW,4.6,-,N/A,,Overcast,210,2013-04-10 15:53:00
10:53 AM,62.1,44.1,52,29.99,10.0,South,8.1,-,N/A,,Overcast,180,2013-04-10 17:53:00
11:53 AM,66.0,44.1,45,29.96,10.0,SW,26.5,32.2,N/A,,Mostly Cloudy,220,2013-04-10 18:53:00
12:53 PM,64.9,46.0,50,29.95,10.0,West,13.8,-,N/A,,Overcast,260,2013-04-10 19:53:00
1:53 PM,60.1,48.0,64,29.97,10.0,WSW,21.9,32.2,0.00,,Overcast,240,2013-04-10 20:53:00
2:53 PM,63.0,42.1,46,29.97,5.0,WSW,27.6,42.6,0.01,,Haze,240,2013-04-10 21:53:00
3:21 PM,62.6,41.0,45,29.97,9.0,SW,28.8,39.1,N/A,,Overcast,230,2013-04-10 22:21:00
3:33 PM,64.4,42.8,45,29.97,9.0,SW,29.9,41.4,N/A,,Overcast,230,2013-04-10 22:33:00
3:53 PM,64.9,42.1,43,29.96,7.0,WSW,32.2,41.4,N/A,,Overcast,250,2013-04-10 22:53:00
4:53 PM,63.0,41.0,45,29.96,9.0,WSW,31.1,42.6,N/A,,Mostly Cloudy,240,2013-04-10 23:53:00
5:04 PM,62.6,41.0,45,29.96,10.0,WSW,27.6,40.3,N/A,,Mostly Cloudy,250,2013-04-11 00:04:00
5:53 PM,62.1,39.9,44,29.98,10.0,WSW,25.3,35.7,N/A,,Clear,250,2013-04-11 00:53:00
6:53 PM,59.0,39.0,48,30.01,10.0,WSW,26.5,33.4,N/A,,Clear,250,2013-04-11 01:53:00
7:53 PM,54.0,37.9,55,30.05,10.0,WSW,20.7,28.8,N/A,,Clear,250,2013-04-11 02:53:00
8:53 PM,51.1,37.0,59,30.09,10.0,WSW,17.3,24.2,N/A,,Clear,250,2013-04-11 03:53:00
9:53 PM,48.9,36.0,61,30.13,10.0,South,11.5,-,N/A,,Clear,190,2013-04-11 04:53:00
10:53 PM,46.9,36.0,66,30.15,10.0,South,11.5,19.6,N/A,,Clear,190,2013-04-11 05:53:00
11:53 PM,46.0,35.1,66,30.16,10.0,South,11.5,-,N/A,,Clear,180,2013-04-11 06:53:00